Simultaneous Nadir Overpasses (SNOs) Predictions

Prediction of SNOs between GOES-17 and METOP-C Satellite Orbit:

Table of predicted SNOs for the next 14.0 days since TLE Epoch: 3/26/2022
Index Date Time (GOES-17) GOES-17 Lat,Lon METOP-C Lat,Lon Distance(km) Time Diff (sec)
1 03/26/2022 18:27:08 0.03,-137.20 -0.64,-134.36 325.28 80
2 03/28/2022 06:48:47 -0.03,-137.20 -0.40,-138.95 198.63 80
3 03/29/2022 06:25:28 -0.03,-137.20 0.71,-133.95 370.72 80
4 03/30/2022 18:47:00 0.03,-137.22 0.34,-138.51 148.20 80
5 03/31/2022 18:23:42 0.03,-137.22 -0.82,-133.53 421.13 80
6 04/02/2022 06:45:21 -0.03,-137.21 -0.20,-138.12 103.09 80
7 04/03/2022 06:22:01 -0.03,-137.21 0.90,-133.13 465.92 80
8 04/04/2022 18:42:24 0.03,-137.22 0.14,-137.69 53.85 10
9 04/07/2022 06:41:54 -0.02,-137.19 -0.06,-137.28 11.00 80
